Regional Weather Roundup
Issued by NWS

Home | Current Version | Previous Version | Graphics & Text | Print | Product List | Glossary On
Versions: 1 2 3 4 5 6 7 8 9 10 11 12 13 14 15 16 17 18 19 20 21 22 23 24 25 26 27 28 29 30 31 32 33 34 35 36 37 38 39 40 41 42 43 44 45 46 47 48 49 50
000
ASUS43 KDTX 300701
RWRMI
MICHIGAN HOURLY REGIONAL WEATHER ROUNDUP
NATIONAL WEATHER SERVICE DETROIT/PONTIAC MI
300 AM EDT SAT MAY 30 2015

NOTE: "FAIR" INDICATES FEW OR NO CLOUDS BELOW 12,000 FEET WITH NO
SIGNIFICANT WEATHER AND/OR OBSTRUCTION TO VISIBILITY.

MIZ047>049-052>055-059>063-066>070-074>076-081>083-300800-
SOUTHEAST LOWER MICHIGAN

CITY           SKY/WX    TMP DP  RH WIND       PRES   REMARKS
ADRIAN         PTCLDY    70  63  78 SW10      29.98F
ALMA           MOCLDY    68  67  94 SW6       29.91F
ANN ARBOR      CLEAR     69  63  81 S6        29.96F
BAD AXE        LGT RAIN  68  65  92 SW13      29.91F
CARO           LGT RAIN  68  66  95 SW7       29.91F
DETROIT CITY   PTCLDY    72  64  76 S8        29.96F
DETROIT        MOCLDY    73  64  73 S9        29.97F
FLINT          MOCLDY    73  65  75 SW6       29.94F
GROSSE ILE     CLEAR     66  64  94 S8        29.96F
HILLSDALE      PTCLDY    71  66  85 SW5       29.99S
HOWELL         MOCLDY    71  64  77 S3        29.95F

CITY           SKY/WX    TMP DP  RH WIND       PRES   REMARKS
JACKSON        MOCLDY    73  64  73 SW8       29.96F
LAMBERTVILLE   CLEAR     72  63  73 SW5       29.98F
LANSING        MOCLDY    69  66  90 SW10      29.94F
LAPEER         FAIR      72  63  72 W5        29.95S
MASON          CLOUDY    69  64  85 CALM      29.95S
MONROE         CLEAR     73  64  73 S8        29.96F
MT. CLEMENS    PTCLDY    70  65  82 S9        29.94S
PONTIAC        MOCLDY    73  64  73 SW9       29.95F
PORT HOPE        N/A     70  67  90 SW12G22   29.88F
PORT HURON     PTCLDY    68  64  88 S8        29.95F
TRI CITIES     PTCLDY    71  66  84 SW13      29.91S
MIDLAND        FAIR      69  66  93 SW7       29.89F
TROY           PTCLDY    73  65  75 S5        29.98S
SAGINAW HB     MOCLDY    68  68 100 SW10      29.90F
$$
MIZ043>046-050>051-056>058-064>065-071>073-077>080-300800-
SOUTHWEST LOWER MICHIGAN

CITY           SKY/WX    TMP DP  RH WIND       PRES   REMARKS
BATTLE CREEK   CLOUDY    70  67  90 SW6       29.96F
BENTON HARBOR  MOCLDY    69  65  86 SW6       29.94S
BIG RAPIDS     CLOUDY    68  64  86 SE7       29.90S
COLDWATER      MOCLDY    72  63  73 SW8       29.97S
FREMONT        CLOUDY    65  63  92 SW6       29.91S
HOLLAND        MOCLDY    71  64  78 SW18      29.93S
GRAND RAPIDS   MOCLDY    69  66  90 S7        29.92F
IONIA          FAIR      69  67  91 SW8       29.92F
KALAMAZOO      CLOUDY    70  66  87 SW8       29.95F
LUDINGTON      CLOUDY    56  54  92 NW3       29.91S FOG
MARSHALL       CLOUDY    73  64  75 SW6       29.95F
MOUNT PLEASANT FAIR      68  66  92 SW5       29.90F
MUSKEGON       CLOUDY    63  60  90 S6        29.91F
SOUTH HAVEN    MOCLDY    70  65  84 SW8       29.94S
$$
MIZ016>042-300800-
NORTHERN LOWER MICHIGAN

CITY           SKY/WX    TMP DP  RH WIND       PRES   REMARKS
ALPENA         CLOUDY    68  65  90 SW8       29.83F
BEAVER ISLAND  RAIN      51  50  97 NW7       29.90R
BELLAIRE       CLOUDY    60  58  95 CALM      29.89R FOG
CADILLAC       CLOUDY    67  65  96 SW10      29.89S FOG
CHARLEVOIX     FOG       53  53 100 W10       29.92R VSB 1/2
FRANKFORT      LGT RAIN  54  49  83 S5        29.89F
GAYLORD        CLOUDY    61  61 100 W6        29.88R FOG
GRAYLING       CLOUDY    67  65  94 W8        29.88S
HARBOR SPRINGS FOG       51  51  99 CALM      29.87S VSB 1/2
HOUGHTON LAKE  MOCLDY    68  66  93 SW9       29.88S
MANISTEE       CLOUDY    55  52  88 W12       29.93R
OSCODA         CLOUDY    67  67  98 S9        29.85F
PELLSTON       FOG       59  59 100 NW7       29.86S VSB 3/4
ROGERS CITY    RAIN      64  63  98 W5        29.84F
TRAVERSE CITY  FOG       53  52  96 CALM      29.89R VSB 1
$$
MIZ007>008-015-300800-
EASTERN UPPER MICHIGAN

CITY           SKY/WX    TMP DP  RH WIND       PRES   REMARKS
KINROSS        CLOUDY    55  55 100 N6        29.85S VSB 3/4
MACKINAC ISLAN FOG       56  56 100 NW7       29.85S VSB 1/2
NEWBERRY       LGT RAIN  49  49  99 NW8G16    29.89S
S. S. MARIE    LGT RAIN  49  47  93 NW8       29.84F VSB 1
$$
MIZ004>006-011>014-085-300800-
CENTRAL UPPER MICHIGAN

CITY           SKY/WX    TMP DP  RH WIND       PRES   REMARKS
MANISTIQUE     LGT RAIN  51  49  95 NW14      29.90R
ESCANABA       CLOUDY    54  48  82 NW9       29.94R
MENOMINEE      CLOUDY    57  54  88 N9G16     29.92R
SAWYER-GWINN   LGT RAIN  50  48  93 N20       29.97R
$$
MIZ001>003-009>011-084-300800-
WESTERN UPPER MICHIGAN

CITY           SKY/WX    TMP DP  RH WIND       PRES   REMARKS
IRON MOUNTAIN  LGT RAIN  53  51  93 N8        29.97S
HOUGHTON       CLOUDY    49  45  86 NW7       30.01R
COPPER HARBOR    N/A     43  40  89 N8        30.01R
IRONWOOD       CLOUDY    46  45  93 W5        30.05R
$$

ABBREVIATIONS USED IN REMARKS
   TC - TEMPERATURE IN CELSIUS
  WCI - WIND CHILL INDEX
   HX - HEAT INDEX
  VSB - VISIBILITY




USA.gov is the U.S. government's official web portal to all federal, state and local government web resources and services.